Back to catalog

STARLINK-35598

AliveCommunicationsVLEO
NORAD 66509·PAYLOAD·🇺🇸 United States

Launched Nov 15, 2025 from Cape Canaveral Space Force Station

Loading…

Next Passes (next 24 hours)

TLE

FreshSource: CelesTrak SupGP

Epoch: Sep 15, 2026, 03:51 UTC

1 66509C 25263AA  26258.16090278  .00044434  00000+0  16091-2 0  2585
2 66509  43.0012   1.0536 0001475 263.2165  18.8147 15.27561650    13

Track STARLINK-35598 in real time with AllMySat

Download on the App Store